Wind_Speed
2 2 3 3 4 5 5 6 7 8 9 10 10 10 11 11 11 11 12 13 13 13 13 13 14 13 13 13 14 16 17 17 17
4 5 5 4 5 5 5 5 6 6 8 9 9 9 10 10 11 11 11 12 12 12 12 12 13 13 13 13 13 15 16 17 18
5 5 5 5 5 6 6 6 7 7 8 9 8 9 9 10 10 10 11 12 12 13 13 13 13 13 13 14 15 15 17 16 17
5 4 3 3 3 4 4 4 5 5 7 8 8 10 11 12 13 14 14 14 15 15 16 16 15 14 15 16 16 18 18 19 19
7 5 4 4 4 4 5 5 6 7 9 10 11 12 13 15 16 16 17 17 17 18 18 17 16 15 16 17 17 19 20 19 21
8 8 7 6 6 7 7 8 9 10 11 11 12 13 14 16 17 19 20 20 19 18 19 18 19 19 20 21 23 23 20 21 22
10 9 9 9 9 9 10 11 11 12 13 13 14 15 17 18 19 19 19 20 20 21 21 21 21 21 22 24 26 28 29 29 28
11 11 11 12 11 12 12 13 13 13 14 15 17 18 18 18 19 20 20 22 23 24 24 25 25 25 26 27 28 29 30 30 31
14 14 14 14 14 13 14 14 14 14 15 17 17 17 18 19 20 21 23 24 26 27 27 27 26 26 27 29 29 30 32 33 33
17 17 17 17 16 15 15 15 15 15 16 17 17 19 20 22 23 25 24 25 25 25 25 26 26 26 26 27 27 28 29 30 31
18 18 17 17 16 15 15 15 15 16 18 19 20 22 23 23 24 25 24 24 24 25 25 26 26 27 28 29 29 29 29 30 32
19 17 16 15 14 15 14 14 15 18 20 22 23 24 24 24 23 24 24 24 25 26 27 28 28 30 31 31 32 33 33 33 33
19 17 15 13 13 13 13 14 16 20 22 24 24 24 24 23 23 24 24 25 27 28 30 30 31 32 33 34 35 36 35 36 37
20 17 14 12 12 12 13 15 18 21 23 24 24 24 24 24 24 25 26 27 29 30 31 32 34 35 36 36 37 38 38 38 39
17 20 15 13 12 12 13 17 19 21 23 25 25 25 25 25 26 27 27 29 30 33 34 35 36 37 38 39 39 39 40 40 41
19 22 17 15 13 13 15 18 20 22 24 26 26 25 26 26 27 27 30 31 32 34 36 37 37 38 38 39 40 40 41 42 43
20 20 16 15 14 14 17 19 22 24 26 27 27 27 28 28 28 29 32 33 35 35 36 37 38 40 41 41 42 43 45 47 49
22 20 16 15 14 16 18 21 23 26 27 28 29 31 32 32 31 32 33 33 34 34 35 36 38 40 42 44 46 48 50 53 55
21 17 16 15 15 17 20 22 25 27 29 31 31 31 33 35 37 36 38 37 36 36 35 36 38 41 44 47 50 53 56 59 61
22 18 17 16 17 19 22 25 28 30 32 33 33 34 35 37 40 40 38 39 40 42 42 42 44 47 51 54 57 60 64 66 68
Wind_Direction
258 242 244 241 242 241 238 240 248 250 257 262 268 273 277 282 285 286 288 288 289 289 289 289 287 286 284 280 279 278 276 274 271
270 265 259 255 257 260 261 264 268 272 275 277 279 282 284 285 286 290 290 289 290 292 292 288 285 284 284 284 280 277 274 273 273
286 275 272 268 271 271 273 275 278 280 280 281 283 285 288 290 290 289 290 291 291 289 288 287 285 283 286 286 284 281 277 274 272
303 299 299 291 285 284 286 288 292 295 294 290 292 292 291 290 291 293 293 293 294 291 286 282 287 288 294 294 294 290 288 282 278
301 307 298 287 289 289 285 284 287 289 291 293 294 297 298 299 300 299 299 296 294 288 288 292 283 265 259 261 269 277 284 287 292
295 302 299 293 286 284 287 293 292 289 289 292 296 297 297 296 297 296 296 295 292 287 285 283 280 271 261 261 261 263 268 270 270
292 294 296 296 291 288 288 289 291 294 296 299 298 298 295 295 296 295 295 294 292 290 288 284 280 277 273 269 266 263 262 264 263
286 289 291 292 293 289 285 288 293 295 299 302 302 299 298 297 297 297 295 292 291 289 287 285 284 281 277 273 272 270 268 267 266
281 283 284 285 287 288 286 289 292 296 297 297 294 294 293 294 292 291 289 289 287 287 288 289 286 283 282 281 279 277 276 275 272
281 283 282 284 285 287 286 288 291 293 293 292 294 295 297 295 295 293 292 289 289 289 289 288 288 287 284 283 282 280 278 277 275
278 278 277 278 282 282 281 284 293 296 298 301 302 302 300 298 296 295 294 292 292 291 290 290 290 289 288 287 286 283 280 278 277
275 275 275 272 273 278 283 290 293 300 301 302 302 302 301 300 298 297 297 296 296 295 294 293 292 290 288 287 286 284 283 280 277
277 278 279 270 272 276 284 294 300 301 304 305 305 304 302 302 300 300 300 300 298 297 296 295 293 291 289 288 287 285 284 283 281
277 281 285 274 273 279 291 298 300 303 307 308 308 307 306 304 303 302 301 300 299 298 295 294 292 291 290 289 288 287 286 285 283
276 277 280 277 274 282 293 299 302 308 311 312 310 308 307 305 304 304 303 302 301 298 297 296 294 292 291 290 289 288 287 286 284
271 267 276 271 273 285 295 302 309 313 314 313 309 307 305 304 305 304 302 301 299 298 296 294 293 293 292 290 289 288 287 286 285
271 266 271 263 271 286 297 306 312 316 314 313 311 308 304 304 303 303 303 302 301 298 296 295 295 294 293 292 291 290 289 288 287
256 266 259 258 272 287 299 309 314 315 315 316 314 310 308 305 302 303 301 299 297 295 294 293 293 292 291 291 290 289 288 286 285
258 260 251 259 275 288 300 309 313 316 319 317 313 309 307 306 305 305 303 301 298 294 293 293 293 292 291 291 291 291 289 289 288
255 252 250 263 277 290 300 307 312 317 319 315 312 309 307 306 305 303 301 300 300 299 299 298 298 298 298 296 296 295 293 292 291
Height
3145 3144 3143 3143 3142 3142 3141 3142 3142 3141 3141 3141 3140 3140 3140 3139 3139 3138 3138 3137 3137 3136 3135 3135 3134 3134 3133 3132 3131 3131 3131 3131 3131
3145 3144 3143 3142 3142 3142 3141 3140 3140 3139 3139 3139 3138 3138 3138 3137 3137 3137 3136 3136 3135 3134 3133 3132 3131 3131 3130 3129 3129 3128 3128 3127 3128
3145 3144 3142 3141 3141 3140 3140 3139 3139 3138 3138 3138 3137 3137 3136 3136 3135 3134 3134 3133 3132 3131 3130 3129 3129 3128 3127 3127 3126 3125 3125 3124 3124
3144 3143 3142 3141 3140 3140 3139 3138 3138 3138 3138 3137 3136 3136 3135 3134 3133 3132 3131 3130 3129 3128 3126 3125 3125 3126 3125 3125 3124 3123 3122 3122 3121
3143 3142 3141 3140 3140 3139 3139 3138 3137 3137 3137 3136 3135 3134 3133 3132 3131 3130 3129 3127 3126 3124 3123 3122 3122 3121 3120 3120 3120 3119 3118 3118 3118
3142 3141 3141 3139 3139 3138 3137 3136 3136 3136 3135 3134 3133 3132 3131 3129 3128 3126 3125 3124 3122 3121 3119 3118 3117 3116 3117 3115 3115 3115 3115 3115 3114
3140 3140 3139 3138 3137 3136 3136 3135 3135 3134 3132 3132 3131 3129 3128 3126 3125 3123 3121 3120 3118 3117 3115 3114 3113 3112 3111 3110 3110 3110 3109 3109 3109
3137 3137 3136 3136 3135 3134 3134 3133 3132 3131 3130 3129 3128 3126 3124 3123 3121 3119 3117 3115 3114 3112 3111 3109 3109 3107 3106 3105 3104 3103 3103 3103 3102
3135 3134 3133 3133 3133 3132 3131 3131 3129 3128 3127 3126 3125 3123 3121 3119 3117 3115 3113 3110 3108 3107 3105 3104 3104 3102 3100 3099 3098 3097 3097 3096 3096
3132 3131 3130 3130 3130 3129 3128 3127 3126 3124 3123 3122 3120 3119 3117 3115 3112 3109 3107 3105 3104 3102 3100 3099 3098 3096 3095 3093 3092 3091 3090 3089 3088
3129 3128 3127 3127 3126 3126 3125 3124 3122 3121 3119 3117 3116 3114 3112 3109 3107 3105 3102 3100 3098 3097 3095 3094 3092 3090 3089 3087 3086 3084 3083 3082 3081
3125 3125 3124 3123 3123 3122 3122 3120 3119 3117 3115 3113 3111 3108 3106 3104 3102 3100 3097 3095 3094 3092 3090 3088 3086 3084 3082 3080 3078 3076 3075 3074 3073
3121 3120 3120 3119 3119 3119 3118 3117 3115 3114 3111 3108 3106 3104 3102 3099 3097 3095 3092 3090 3088 3086 3084 3081 3079 3076 3074 3072 3070 3068 3067 3065 3063
3116 3116 3116 3116 3115 3115 3114 3113 3112 3110 3106 3104 3101 3099 3096 3094 3092 3090 3087 3084 3082 3080 3078 3075 3072 3069 3067 3064 3062 3060 3058 3057 3055
3112 3112 3112 3112 3112 3111 3111 3110 3109 3105 3102 3099 3097 3094 3092 3089 3087 3084 3081 3078 3076 3073 3070 3067 3064 3062 3059 3056 3054 3051 3049 3047 3045
3108 3108 3109 3109 3108 3107 3107 3106 3104 3101 3098 3095 3092 3089 3087 3084 3081 3078 3075 3072 3069 3066 3062 3059 3056 3053 3050 3047 3044 3042 3039 3037 3034
3103 3105 3105 3105 3104 3104 3103 3101 3099 3096 3094 3090 3086 3083 3081 3078 3075 3072 3069 3065 3061 3057 3054 3050 3047 3043 3040 3037 3034 3031 3028 3025 3022
3100 3101 3100 3101 3100 3099 3098 3096 3094 3091 3088 3084 3081 3077 3073 3071 3069 3066 3062 3058 3054 3050 3046 3042 3039 3035 3030 3027 3023 3020 3017 3013 3010
3095 3096 3096 3096 3096 3095 3093 3091 3089 3085 3082 3079 3076 3072 3067 3062 3060 3058 3052 3049 3045 3041 3038 3034 3031 3026 3021 3016 3011 3007 3002 2997 2993
3091 3092 3092 3091 3091 3090 3088 3086 3083 3079 3075 3072 3069 3065 3060 3055 3049 3047 3046 3040 3035 3030 3026 3023 3018 3013 3007 3002 2996 2990 2984 2978 2972